Regional Weather Roundup
Issued by NWS

Home | Current Version | Previous Version | Graphics & Text | Print | Product List | Glossary On
Versions: 1 2 3 4 5 6 7 8 9 10 11 12 13 14 15 16 17 18 19 20 21 22 23 24 25 26 27 28 29 30 31 32 33 34 35 36 37 38 39 40 41 42 43 44 45 46 47 48 49 50
000
ASUS43 KBIS 132210
RWRND

NORTH DAKOTA REGIONAL WEATHER ROUNDUP
NATIONAL WEATHER SERVICE BISMARCK ND
400 PM CST SAT FEB 13 2016

NOTE: "FAIR" INDICATES FEW OR NO CLOUDS BELOW 12,000 FEET WITH NO
SIGNIFICANT WEATHER AND/OR OBSTRUCTIONS TO VISIBILITY.


NDZ001>003-009>011-017-132300-
NORTHWEST NORTH DAKOTA

CITY           SKY/WX    TMP DP  RH WIND       PRES   REMARKS
WILLISTON      HVY SNOW  20  17  88 SE8       29.81S VSB 1/4 WCI  10
MINOT          LGT SNOW  18   8  65 SE13G23   29.92F WCI   5
MINOT AFB      CLOUDY    17  11  76 SE16      29.91F WCI   2
$$

NDZ018>021-031>035-040>046-132300-
SOUTHWEST NORTH DAKOTA

CITY           SKY/WX    TMP DP  RH WIND       PRES   REMARKS
BISMARCK       LGT SNOW  18  10  71 S10       30.00R WCI   6
DICKINSON      CLOUDY    20  16  84 S17       29.80S WCI   5
GARRISON         N/A     14   9  80 SE18      29.89F WCI  -3
HETTINGER ARPT CLOUDY    23  20  88 E7        29.85R WCI  15
$$

NDZ004>008-012>016-024-026-027-054-132300-
NORTHEAST NORTH DAKOTA

CITY           SKY/WX    TMP DP  RH WIND       PRES   REMARKS
GRAND FORKS    CLOUDY     9   0  67 SE18      30.25F WCI -10
GRND FRKS AFB  CLOUDY    10  -1  62 S16       30.22F WCI  -8
DEVILS LAKE    CLOUDY     7   0  73 SE21      30.09F WCI -13
$$

NDZ022-023-025-028>030-036>039-047>053-132300-
SOUTHEAST NORTH DAKOTA

CITY           SKY/WX    TMP DP  RH WIND       PRES   REMARKS
FARGO          CLOUDY    13   0  56 SE15G25   30.27F WCI  -3
JAMESTOWN      CLOUDY     9   1  70 SE21      30.08F WCI -11
$$




USA.gov is the U.S. government's official web portal to all federal, state and local government web resources and services.